Track COSMOS 1554 (GLONASS) now! COSMOS 1554 (GLONASS) is classified as:
1 14977U 84047A 24324.27649031 -.00000065 00000-0 00000-0 0 9990 2 14977 66.5722 346.9115 0018903 222.8778 214.3823 2.13099295 91636